Regional Weather Roundup
Issued by NWS

Home | Current Version | Previous Version | Graphics & Text | Print | Product List | Glossary On
Versions: 1 2 3 4 5 6 7 8 9 10 11 12 13 14 15 16 17 18 19 20 21 22 23 24 25 26 27 28 29 30 31 32 33 34 35 36 37 38 39 40 41 42 43 44 45 46 47 48 49 50
000
ASUS43 KMKX 290500
RWRWI

WISCONSIN REGIONAL WEATHER ROUNDUP
NATIONAL WEATHER SERVICE MILWAUKEE/SULLIVAN WI
1200 AM CDT SAT AUG 29 2015

NOTE: "FAIR" INDICATES FEW OR NO CLOUDS BELOW 12,000 FEET WITH NO
SIGNIFICANT WEATHER AND/OR OBSTRUCTIONS TO VISIBILITY.

WIZ001-002-006>008-014>016-023>028-290600-
NORTHWEST WISCONSIN

CITY           SKY/WX    TMP DP  RH WIND       PRES   REMARKS
SUPERIOR ARPT  CLEAR     65  61  85 SW10      29.99R
ASHLAND        CLEAR     64  62  93 SW10      30.01R
HAYWARD        CLEAR     61  57  87 S8        30.06R
SIREN          CLEAR     59  56  89 S3        30.05F
CUMBERLAND     CLEAR     55  54  94 CALM      30.07S
RICE LAKE      CLEAR     56  54  94 CALM      30.07F
CHETEK         CLEAR    N/A N/A N/A CALM      30.07S
LADYSMITH      CLEAR     57  55  94 CALM      30.10R
EAU CLAIRE     NOT AVBL
MENOMONIE      FAIR      56  55  96 CALM      30.05F
NEW RICHMOND   CLEAR     55  55  99 CALM      30.05F
OSCEOLA        CLEAR     55  55 100 CALM      30.08S
$$

WIZ003>005-009-010-017-018-290600-
NORTH CENTRAL WISCONSIN

CITY           SKY/WX    TMP DP  RH WIND       PRES   REMARKS
MANITOWISH WTR CLOUDY    62  60  93 SW9G16    30.08R
ARBOR VITAE    CLOUDY    62  59  90 SW12      30.09R
WOODRUFF       CLOUDY    62  59  90 SW12      30.09R
RHINELANDER    CLOUDY    61  55  81 W10       30.10R
EAGLE RIVER    RAIN      62  61  94 SW7       30.08R
LAND O LAKES   CLOUDY    64  59  86 SW10      30.07R
PHILLIPS       MOCLDY    59  57  94 SW3       30.09R
TOMAHAWK       CLOUDY    59  55  87 S3        30.09S
MEDFORD        PTCLDY    56  55  95 SE6       30.07F
MERRILL        CLOUDY    59  58  96 CALM      30.09F
$$

WIZ029-030-035-036-043>047-290600-
CENTRAL WISCONSIN

CITY           SKY/WX    TMP DP  RH WIND       PRES   REMARKS
WAUSAU         CLOUDY    59  54  83 S7        30.07F
MOSINEE        CLOUDY    55  55 100 SE7       30.10F
MARSHFIELD     PTCLDY    56  52  86 SE6       30.07F
STEVENS POINT  CLOUDY    55  54  94 SE5       30.10F
WAUPACA        CLOUDY    59  58  97 E3        30.11F
WAUTOMA        NOT AVBL
WISC RAPIDS    CLOUDY    58  54  86 SE6       30.08F
CAMP DOUGLAS   DRIZZLE   57  57 100 E8        30.06S
$$

WIZ011>013-019>022-031-037>040-048>050-290600-
NORTHEAST WISCONSIN

CITY           SKY/WX    TMP DP  RH WIND       PRES   REMARKS
ANTIGO         CLOUDY    57  55  94 S9        30.10F
SHAWANO        CLOUDY    61  56  85 SW5       30.11S
OCONTO         CLOUDY    60  60 100 SW5       30.10S
STURGEON BAY   CLOUDY    61  55  82 SW13      30.12F
GREEN BAY      CLOUDY    59  55  87 SW9G18    30.13S
MANITOWOC      NOT AVBL
APPLETON       RAIN      55  55 100 SE5       30.11F
CLINTONVILLE   CLOUDY    59  54  82 S9        30.11S
OSHKOSH        HVY RAIN  57  55  93 CALM      30.12F FOG
$$

WIZ032>034-041-042-053>061-290600-
SOUTHWEST WISCONSIN

CITY           SKY/WX    TMP DP  RH WIND       PRES   REMARKS
LA CROSSE      CLOUDY    60  57  89 SE7       30.01F
SPARTA         CLOUDY    58  56  95 NE6       30.05F
VIROQUA        CLOUDY    58  58 100 E8        30.03F
BOSCOBEL       LGT RAIN  63  61  93 NE6       30.01F FOG
PRAIRIE DU CHI RAIN      62  61  95 NE6       29.99S
PLATTEVILLE    CLOUDY    64  64  97 SE17G24   29.98F
$$

WIZ056-057-062-063-064-067-068-290600-
SOUTH CENTRAL WISCONSIN

CITY           SKY/WX    TMP DP  RH WIND       PRES   REMARKS
REEDSBURG      RAIN      57  56  99 E8        30.06F
BARABOO/DELLS  RAIN      57  55  93 E13       30.06F
LONE ROCK      RAIN      63  61  94 E10       30.04S FOG
MINERAL POINT  RAIN      64  63  94 SE9       30.02S
MADISON        LGT RAIN  60  58  92 E10       30.05F
MIDDLETON      CLOUDY    65  64  97 E8        30.05F
WATERTOWN      LGT RAIN  59  59 100 E8        30.06F
MONROE         RAIN      63  61  94 SE10G16   30.04S
JANESVILLE     RAIN      64  63  94 SE8       30.05S
$$

WIZ051-052-058>065-066-070>072-290600-
SOUTHEAST WISCONSIN

CITY           SKY/WX    TMP DP  RH WIND       PRES   REMARKS
MILWAUKEE      LGT RAIN  63  61  93 E7        30.09F VSB 1/2
WAUKESHA       LGT RAIN  61  59  94 E9        30.09F
MILWAUKEE/TIMM LGT RAIN  61  55  82 E7        30.09F
RACINE         LGT RAIN  63  61  93 E5        30.11F VSB 1/2
BURLINGTON     LGT RAIN  62  60  94 E7        30.09F
KENOSHA        LGT RAIN  64  62  93 E6        30.10F FOG
FOND DU LAC    HVY RAIN  59  57  93 NE6       30.12R FOG
SHEBOYGAN      LGT RAIN  60  58  92 N6        30.11F
WEST BEND      LGT RAIN  59  55  88 CALM      30.10S
JUNEAU         RAIN      57  55  95 NE8       30.09F
$$

LSZ147-162-290600-
LAKE SUPERIOR

STATION/POSITION TIME  TEMP    WIND        PRES    WAVE
                       AIR SEA DIR/SP/G            HT/PER
                 (UTC) (F)     (DEG/KT/KT) (MB)    (FT/S)
W MID LAKE BUOY  0350   60 56  210/ 16/ 17 1013.8R   1/ 3
DEVILS ISLAND    0400   66     220/ 17/ 20 1014.3R
PORT WING        0400   69     200/ 10/ 15 1015.6R
SAXON HARBOR     0420   67     200/  7/ 24 1015.9R
$$

LMZ867-665-643>646-290600-
LAKE MICHIGAN

STATION/POSITION TIME  TEMP    WIND        PRES    WAVE
                       AIR SEA DIR/SP/G            HT/PER
                 (UTC) (F)     (DEG/KT/KT) (MB)    (FT/S)
CHAMBERS ISLAND  0400   63     190/  8/ 14 1018.6R
S GREEN BAY BUOY 0400   63 62  230/  6/  8 1020.9
N MID LAKE BUOY  0350   63 64  230/ 12/ 14 1018.3R   3/ 5
NORTHPORT PIER   0400   64     190/  4/  6 1018.3S
SISTER BAY       0419   64     230/ 16/ 18   N/A
ALGOMA LAKESHORE 0414          260/  6/  8   N/A
SHEBOYGAN LAKESH 0400   60     210/  3/  4 1020.6R
PORT WASHINGTON  0440   57      40/  6/  9 1019.6F
ATWATER BUOY     0400   53 48  350/  2/  2 1020.8R
MILWAUKEE LAKESH 0400   56      50/  6/  6   N/A
S MID LAKE BUOY  0350   68 69   80/  8/ 10 1019.2S   0
KENOSHA   LAKESH 0400   58      10/  9/  9 1019.3R
$$

TC  - TEMPERATURE IN CELSIUS
VSB - VISIBILITY IN STATUTE MILES
WCI - WIND CHILL INDEX
HX  - HEAT INDEX



USA.gov is the U.S. government's official web portal to all federal, state and local government web resources and services.